Location: Unspecified
(52.0000°N, 4.4000°E)
Time: 20:06:20
(UTC+00:00)

Cosmos 1937 Rocket - Pass Details

Date: 14 May 2025
Orbit: 743 x 775 km, 74.0° (Epoch: 20 June)

Event Time Altitude Azimuth Distance (km) Brightness Sun altitude
Rises 20:18:18 0° 332° (NNW) 3,235 8.4 -6.8°
Reaches altitude 10° 20:20:43 10° 328° (NNW) 2,300 7.5 -7.1°
Maximum altitude 20:25:47 53° 252° (WSW) 924 4.2 -7.7°
Drops below altitude 10° 20:30:45 10° 177° (S) 2,264 5.5 -8.2°
Enters shadow 20:32:13 - 174° (S) 2,824 6.0 -8.4°
